Location: Sternwarte Stuttgart
(48.7670°N, 9.1830°E)
Time: 14:09:26
(UTC+02:00)

IRS-1C Rocket - Pass Details

Date: 24 January 2019
Orbit: 800 x 806 km, 99.0° (Epoch: 21 April)

Event Time Altitude Azimuth Distance (km) Brightness Sun altitude
Rises 06:31:27 0° 11° (NNE) 3,331 7.3 -15.0°
Reaches altitude 10° 06:33:50 10° 8° (N) 2,397 6.5 -14.6°
Maximum altitude 06:39:00 57° 291° (WNW) 952 4.1 -13.8°
Drops below altitude 10° 06:44:08 10° 214° (SW) 2,383 6.4 -12.9°
Sets 06:46:30 0° 210° (SSW) 3,311 7.1 -12.6°
